Wind_Speed
0 1 1 1 1 1 2 2 2 1 1 1 0 1 2 3 3 2 2 2 3 4 4 4 5 5 5 5 6 6 6 6 6 6 6 6 6 5 6 7 6 6 6
1 2 2 2 1 1 2 1 1 1 1 1 1 2 2 3 3 3 2 2 3 4 5 5 5 6 5 5 6 6 6 6 6 7 7 7 6 6 7 7 7 7 7
1 2 3 2 2 2 2 2 1 1 1 2 2 2 3 4 4 3 3 3 4 4 5 5 5 6 5 6 6 6 6 6 6 7 8 7 7 8 7 8 8 8 8
1 2 2 2 2 2 3 2 3 3 3 3 3 3 4 4 4 4 4 4 4 5 5 5 5 6 6 6 6 6 7 7 8 8 8 8 8 8 8 9 9 9 9
1 2 3 2 2 3 3 4 5 4 4 4 4 4 5 4 4 4 4 4 5 5 5 6 6 6 6 6 7 8 8 8 8 8 8 8 8 9 9 8 9 10 10
1 2 3 3 3 4 4 5 6 6 6 6 5 6 6 5 6 6 6 6 5 5 5 6 6 7 7 7 7 8 9 8 8 8 8 8 9 9 9 9 9 9 10
2 2 2 3 4 5 6 6 7 7 7 7 7 8 7 6 7 7 7 7 7 7 7 7 7 7 7 7 7 8 7 7 8 8 9 9 9 9 10 10 10 10 10
3 3 3 4 5 6 7 7 7 7 7 8 8 8 7 7 7 8 8 8 7 8 8 8 8 8 8 8 8 9 8 9 9 10 10 10 10 10 11 11 11 12 12
4 4 5 6 7 7 8 8 8 9 8 8 8 8 7 7 7 8 8 8 7 8 8 8 9 9 9 9 8 9 10 10 11 11 11 11 12 12 12 12 13 13 13
6 6 7 7 8 8 9 8 9 9 8 8 8 8 8 9 8 9 9 9 8 8 8 9 9 10 10 9 10 10 11 11 12 12 12 12 12 12 13 13 14 14 14
7 8 8 9 9 9 10 9 9 9 9 9 9 9 10 10 10 10 10 9 9 9 10 11 10 10 11 11 11 12 13 13 13 13 13 13 13 13 14 15 15 15 15
9 9 10 11 11 10 10 11 11 11 12 11 11 11 11 12 11 11 11 10 10 11 11 12 12 12 12 12 13 13 13 13 14 14 14 15 15 15 16 16 16 16 17
11 11 11 12 12 11 11 12 12 13 13 13 13 13 13 13 13 12 12 12 12 13 13 13 13 13 13 13 13 13 14 14 15 15 16 17 17 17 17 18 18 18 18
13 13 13 13 14 13 13 14 14 14 15 15 15 16 15 14 14 15 14 14 14 14 15 15 15 14 14 15 14 14 15 16 16 17 18 19 19 19 19 19 19 19 20
15 15 15 15 15 15 15 16 16 16 16 16 17 17 17 17 17 17 17 16 16 16 16 16 15 16 16 15 16 16 17 17 18 19 20 20 20 20 20 20 20 20 21
17 17 17 17 17 17 17 17 17 17 17 18 18 19 19 19 19 19 19 19 19 18 18 18 18 18 18 17 18 18 18 19 20 20 20 21 21 21 22 23 23 23 23
19 20 20 20 20 20 20 20 20 20 20 21 21 21 21 21 21 21 21 21 21 20 20 20 20 19 20 20 20 20 20 21 21 22 23 23 24 24 24 24 25 25 24
20 21 21 22 23 23 23 22 22 22 23 23 23 23 23 23 23 23 22 22 22 22 22 21 22 22 22 22 23 23 23 24 24 24 25 25 26 26 26 26 26 26 26
22 23 23 23 23 24 25 25 25 25 25 25 25 25 24 24 24 24 24 24 23 23 23 23 23 23 24 24 25 25 26 26 26 26 27 27 27 28 28 28 27 27 27
24 24 24 24 25 25 26 26 27 27 27 27 27 26 26 26 26 25 25 25 25 25 25 25 25 25 25 26 27 27 27 28 28 29 29 29 29 29 29 29 29 29 28
27 27 27 26 27 27 27 28 28 28 28 28 28 28 28 27 27 27 27 27 27 27 28 27 27 27 27 27 28 28 29 29 30 30 30 30 30 30 30 30 30 30 29
30 30 29 28 29 29 29 29 30 30 30 29 29 29 29 28 28 28 29 29 29 28 28 28 27 28 28 29 30 30 30 30 30 31 31 31 31 31 31 31 31 30 30
32 32 31 30 31 31 31 31 31 31 31 31 31 30 30 30 30 30 30 30 30 29 29 29 29 29 30 30 31 31 31 32 32 32 32 31 32 32 32 31 30 30 31
35 34 33 33 33 33 33 33 32 33 33 32 32 32 32 32 32 32 32 31 31 31 32 31 31 31 32 32 32 33 34 34 34 33 33 33 32 33 32 31 31 31 30
36 35 35 35 35 35 34 33 34 34 34 34 33 34 34 33 33 34 33 33 32 33 33 33 33 33 33 34 34 34 35 35 34 33 33 33 32 32 32 31 30 29 29
38 38 37 36 36 36 36 36 36 35 35 34 34 34 34 34 35 34 34 34 34 34 34 34 34 34 34 34 34 35 35 35 34 34 34 33 32 32 31 31 30 29 28
Wind_Direction
68 40 33 64 86 95 125 121 119 119 159 192 259 305 315 322 317 331 317 316 303 299 302 310 313 313 314 313 319 323 322 318 326 323 318 315 315 321 323 325 318 311 310
319 7 15 27 43 79 100 96 91 73 28 315 296 308 312 320 326 329 322 311 311 310 305 306 313 311 307 309 314 319 320 320 323 323 320 312 310 316 318 322 322 314 303
32 6 13 9 13 19 35 34 9 341 339 333 323 324 317 309 309 314 313 309 311 309 306 310 315 313 310 310 311 314 317 322 323 325 325 316 308 306 309 310 315 314 309
2 3 359 347 358 3 4 351 334 321 312 311 306 299 303 308 306 300 299 306 306 303 301 304 308 309 311 308 308 315 322 320 317 320 326 320 313 309 307 308 309 307 305
321 347 339 313 341 349 341 329 326 323 315 309 309 296 294 303 310 305 305 304 303 305 305 301 303 305 303 303 307 312 317 316 316 318 321 319 319 317 313 311 309 307 305
301 321 332 323 322 323 320 320 323 323 320 311 305 297 294 295 306 307 306 304 302 303 303 302 300 300 304 305 307 311 314 316 320 322 321 318 317 316 312 311 312 308 306
308 312 320 331 323 321 325 325 327 324 323 317 308 299 296 301 304 300 298 298 299 299 301 304 306 307 309 311 310 308 312 314 319 323 325 321 318 317 315 313 312 311 306
296 296 314 322 329 328 331 329 330 327 327 323 317 308 300 298 297 302 299 300 300 300 298 294 298 302 305 305 303 304 302 307 312 316 320 320 320 319 317 314 312 311 308
295 306 313 316 320 322 320 319 322 325 322 323 323 319 310 303 300 301 301 300 298 301 299 296 297 297 297 297 298 301 299 302 306 308 313 315 316 316 316 316 315 314 307
290 299 305 309 314 319 316 315 321 325 326 330 330 326 322 321 317 310 303 301 299 304 302 300 299 295 293 298 299 297 294 296 300 300 306 309 311 312 313 314 315 314 308
284 293 302 307 309 312 313 313 317 321 320 319 321 320 316 316 316 313 307 303 301 300 302 302 301 298 297 296 296 295 292 293 295 295 298 302 306 307 307 308 308 309 308
284 289 297 301 300 305 309 312 311 309 312 310 310 310 307 306 307 307 308 306 302 298 300 301 300 299 299 297 296 296 295 295 294 293 293 296 298 301 302 303 305 306 305
282 284 292 297 299 300 303 305 305 303 303 304 304 304 302 298 299 301 301 300 300 301 300 300 298 297 297 299 298 299 299 298 296 295 292 293 294 297 300 301 302 303 303
284 283 287 292 296 296 298 301 303 303 300 297 299 299 297 295 295 296 297 296 294 296 297 296 293 293 295 295 296 298 299 301 300 298 295 295 295 296 298 300 301 301 301
282 282 284 287 290 292 294 296 298 300 300 297 295 295 295 293 293 293 293 293 292 292 292 294 289 292 293 293 296 297 298 300 303 301 297 295 295 296 298 299 299 300 300
286 285 284 284 284 288 291 293 297 296 298 299 296 294 293 293 292 290 289 290 291 292 292 292 291 293 292 292 295 295 299 300 299 301 300 297 296 295 297 298 297 297 298
290 287 286 285 285 286 287 289 292 293 294 296 295 294 294 293 293 291 288 288 289 289 290 290 290 291 293 293 294 295 297 297 298 297 297 297 296 294 295 296 296 296 297
288 287 287 287 286 286 287 288 290 290 291 293 293 292 293 293 291 290 289 288 287 288 288 286 288 288 288 291 292 293 294 295 295 296 295 295 294 292 292 293 294 294 296
285 286 287 287 287 287 287 288 288 288 289 290 291 291 290 291 289 288 288 289 288 288 288 287 287 286 287 289 292 292 292 293 293 293 294 294 293 291 290 290 291 292 293
282 283 284 284 284 286 287 288 287 287 287 288 289 290 290 290 289 288 290 290 288 286 287 287 287 288 288 289 291 291 291 291 292 292 293 293 292 292 291 290 290 291 292
280 281 282 281 281 282 284 285 287 286 286 287 287 288 288 289 289 288 289 290 287 284 284 286 287 288 289 290 292 293 292 290 291 293 293 292 291 290 290 289 290 290 290
278 279 281 281 281 282 283 283 284 284 284 284 284 285 286 287 287 287 287 288 286 285 283 284 286 288 290 291 291 291 291 292 291 292 291 290 290 290 290 289 290 289 288
278 279 279 281 283 281 281 282 282 283 283 282 282 283 284 283 284 286 285 285 285 284 284 285 286 288 290 291 291 291 290 291 291 293 291 289 290 291 291 289 288 288 288
277 278 280 281 282 282 281 281 282 282 282 282 281 281 282 281 283 285 285 284 284 283 283 284 286 287 288 290 290 291 291 291 291 291 291 292 291 291 290 291 290 288 287
278 278 279 280 280 281 280 280 281 282 281 280 280 281 282 282 283 284 283 282 281 283 283 283 285 286 288 289 289 291 292 292 291 290 290 291 291 291 291 291 290 288 287
278 279 279 279 280 281 281 280 280 280 280 279 279 280 281 282 284 285 284 282 282 283 282 283 284 285 286 288 289 290 290 291 291 289 289 290 291 291 291 291 290 289 288
Height
5911 5911 5911 5912 5912 5912 5912 5912 5912 5912 5912 5912 5913 5913 5913 5912 5911 5912 5912 5912 5912 5912 5912 5912 5912 5911 5911 5911 5910 5910 5909 5909 5908 5908 5907 5906 5906 5906 5905 5905 5904 5904 5903
5912 5912 5912 5912 5912 5912 5912 5912 5912 5912 5912 5912 5912 5913 5913 5912 5911 5912 5911 5911 5911 5911 5911 5911 5911 5910 5910 5910 5910 5909 5908 5908 5907 5907 5906 5905 5905 5904 5904 5903 5903 5902 5901
5912 5912 5912 5912 5913 5913 5913 5912 5912 5912 5912 5912 5912 5912 5912 5912 5912 5912 5911 5911 5911 5910 5910 5910 5910 5909 5909 5909 5908 5908 5907 5907 5906 5905 5905 5904 5904 5903 5903 5902 5901 5900 5900
5913 5913 5913 5913 5913 5913 5913 5913 5912 5912 5912 5912 5912 5912 5912 5911 5911 5911 5911 5910 5910 5910 5910 5909 5909 5908 5908 5908 5907 5907 5906 5905 5905 5904 5903 5903 5902 5902 5901 5900 5899 5899 5898
5913 5913 5913 5913 5913 5913 5913 5912 5912 5912 5911 5911 5911 5911 5911 5911 5910 5910 5910 5910 5909 5909 5908 5908 5908 5907 5907 5906 5906 5905 5905 5904 5904 5903 5902 5901 5900 5900 5899 5898 5898 5897 5896
5913 5913 5913 5913 5913 5913 5912 5912 5912 5911 5911 5910 5910 5909 5909 5909 5909 5909 5909 5908 5908 5907 5907 5907 5906 5906 5905 5905 5905 5904 5903 5903 5902 5901 5901 5900 5899 5898 5897 5896 5896 5895 5894
5913 5913 5913 5913 5913 5912 5912 5911 5911 5910 5910 5909 5908 5908 5907 5907 5908 5907 5907 5907 5906 5906 5906 5905 5905 5904 5904 5903 5903 5902 5902 5901 5901 5900 5899 5898 5897 5896 5896 5895 5894 5893 5892
5913 5913 5913 5913 5912 5912 5911 5911 5910 5909 5909 5908 5907 5906 5906 5907 5906 5906 5905 5905 5904 5904 5903 5903 5903 5902 5902 5902 5901 5901 5900 5899 5899 5898 5897 5896 5895 5894 5894 5893 5892 5891 5889
5912 5913 5913 5913 5912 5911 5911 5910 5909 5908 5907 5907 5906 5906 5905 5905 5904 5904 5903 5902 5902 5902 5901 5901 5901 5900 5900 5899 5899 5899 5898 5897 5897 5896 5895 5894 5893 5892 5891 5890 5889 5888 5887
5912 5912 5912 5911 5911 5910 5909 5909 5908 5907 5906 5905 5905 5904 5904 5903 5903 5902 5901 5901 5900 5900 5899 5899 5898 5897 5896 5897 5896 5896 5895 5895 5894 5893 5892 5891 5891 5890 5889 5888 5886 5885 5884
5911 5911 5910 5910 5910 5909 5908 5907 5907 5906 5905 5904 5903 5903 5902 5901 5901 5900 5900 5899 5899 5898 5897 5896 5896 5895 5895 5894 5893 5893 5892 5892 5891 5890 5889 5889 5888 5887 5886 5885 5883 5882 5880
5909 5909 5909 5908 5907 5907 5906 5905 5905 5904 5903 5902 5901 5901 5900 5899 5898 5898 5897 5896 5896 5895 5894 5893 5893 5893 5892 5891 5890 5890 5889 5888 5887 5886 5886 5885 5884 5883 5882 5881 5880 5878 5877
5907 5907 5907 5906 5905 5904 5904 5903 5903 5902 5901 5900 5899 5898 5897 5896 5896 5895 5894 5894 5893 5892 5891 5891 5890 5889 5888 5888 5887 5886 5885 5884 5883 5882 5882 5881 5880 5879 5878 5877 5876 5874 5873
5904 5904 5904 5903 5903 5902 5901 5901 5900 5899 5898 5897 5896 5895 5894 5893 5892 5892 5891 5891 5890 5889 5888 5886 5885 5885 5884 5884 5883 5882 5881 5880 5879 5878 5877 5877 5876 5875 5874 5872 5871 5870 5868
5900 5900 5900 5900 5899 5899 5898 5897 5896 5895 5894 5893 5892 5891 5890 5889 5889 5888 5887 5886 5886 5885 5884 5883 5881 5880 5880 5879 5879 5878 5877 5876 5875 5874 5873 5872 5871 5870 5869 5867 5866 5864 5863
5896 5896 5896 5896 5895 5895 5894 5893 5893 5892 5891 5890 5889 5887 5886 5885 5884 5883 5883 5882 5881 5880 5879 5878 5877 5876 5875 5874 5874 5873 5872 5872 5871 5869 5868 5867 5866 5865 5863 5862 5860 5859 5857
5892 5892 5892 5891 5891 5890 5889 5889 5888 5887 5886 5885 5884 5883 5882 5880 5879 5878 5877 5876 5876 5875 5874 5873 5872 5872 5870 5869 5868 5868 5867 5866 5865 5864 5863 5861 5860 5859 5857 5856 5854 5853 5851
5887 5887 5887 5886 5885 5885 5884 5883 5882 5882 5881 5880 5879 5878 5876 5875 5874 5873 5872 5871 5870 5869 5869 5868 5867 5866 5865 5864 5863 5862 5861 5860 5859 5858 5857 5855 5853 5852 5850 5849 5848 5846 5844
5882 5881 5881 5880 5880 5879 5878 5878 5877 5876 5875 5874 5873 5872 5871 5869 5868 5867 5866 5865 5864 5863 5863 5862 5861 5860 5859 5858 5857 5856 5854 5853 5852 5851 5849 5848 5846 5845 5843 5842 5840 5839 5837
5876 5875 5875 5874 5874 5873 5872 5871 5870 5869 5869 5867 5866 5865 5865 5863 5862 5860 5860 5859 5858 5857 5856 5855 5854 5853 5852 5851 5850 5848 5847 5846 5845 5843 5842 5840 5838 5837 5835 5834 5833 5831 5829
5869 5868 5868 5867 5867 5866 5865 5864 5863 5862 5862 5860 5859 5858 5858 5857 5856 5854 5853 5852 5851 5851 5850 5848 5847 5846 5845 5844 5842 5841 5839 5838 5836 5835 5833 5832 5830 5829 5827 5825 5824 5822 5820
5861 5861 5860 5860 5859 5858 5858 5857 5856 5855 5854 5853 5852 5851 5850 5849 5848 5847 5846 5845 5844 5843 5842 5841 5840 5839 5838 5836 5834 5833 5831 5829 5828 5827 5825 5823 5821 5820 5818 5817 5815 5813 5812
5852 5852 5852 5851 5851 5850 5849 5848 5847 5846 5845 5844 5843 5842 5842 5841 5840 5839 5837 5837 5836 5835 5835 5834 5833 5831 5830 5828 5826 5824 5822 5821 5819 5817 5815 5814 5812 5811 5809 5807 5806 5804 5803
5842 5842 5842 5841 5841 5841 5839 5839 5838 5837 5836 5835 5835 5834 5833 5832 5831 5830 5829 5828 5828 5827 5826 5825 5824 5823 5821 5820 5818 5816 5814 5812 5810 5808 5806 5805 5803 5802 5800 5798 5797 5795 5793
5833 5833 5832 5832 5831 5831 5830 5829 5828 5827 5827 5826 5825 5825 5824 5823 5822 5821 5820 5820 5819 5818 5817 5816 5815 5814 5812 5811 5809 5807 5805 5803 5801 5799 5797 5796 5794 5793 5791 5789 5787 5786 5784
5823 5823 5822 5821 5821 5821 5820 5819 5818 5817 5817 5816 5816 5815 5814 5813 5813 5812 5811 5810 5809 5809 5808 5807 5806 5804 5803 5801 5799 5798 5796 5794 5792 5790 5788 5787 5785 5783 5782 5781 5778 5777 5775